| time (UTC) | temp C | wind direction | speed KPH | gust KPH | rain 1hr cm | rain 24hr cm | rain mn cm | humidity % | barometer mb |
| 20260510095148 | 9 | 284 | 0.0 | 0.0 | 0.00 | 0.05 | 0.05 | 91 | 1030.5 |
| 20260510094406 | 9 | 284 | 0.0 | 0.0 | 0.00 | 0.05 | 0.05 | 91 | 1030.5 |
| 20260510094225 | 9 | 284 | 0.0 | 0.0 | 0.00 | 0.05 | 0.05 | 90 | 1030.5 |
| 20260510094220 | 9 | 284 | 0.0 | 0.0 | 0.00 | 0.05 | 0.05 | 90 | 1030.5 |
| 20260510092905 | 10 | 284 | 0.0 | 0.0 | 0.00 | 0.05 | 0.05 | 89 | 1030.5 |
| 20260510092712 | 10 | 284 | 0.0 | 0.0 | 0.00 | 0.05 | 0.05 | 88 | 1030.3 |
| 20260510092708 | 10 | 284 | 0.0 | 0.0 | 0.00 | 0.05 | 0.05 | 89 | 1030.4 |
| 20260510091406 | 10 | 284 | 0.0 | 0.0 | 0.00 | 0.05 | 0.05 | 88 | 1030.3 |
| 20260510090945 | 11 | 284 | 0.0 | 0.0 | 0.00 | 0.05 | 0.05 | 87 | 1030.2 |
| 20260510090934 | 10 | 284 | 0.0 | 0.0 | 0.00 | 0.05 | 0.05 | 87 | 1030.3 |
| 20260510085904 | 11 | 284 | 0.0 | 0.0 | 0.00 | 0.05 | 0.05 | 87 | 1029.9 |
| 20260510085404 | 11 | 284 | 0.0 | 0.0 | 0.00 | 0.05 | 0.05 | 86 | 1029.9 |
| 20260510084906 | 11 | 284 | 0.0 | 0.0 | 0.00 | 0.05 | 0.05 | 85 | 1029.9 |
| 20260510084406 | 11 | 284 | 0.0 | 0.0 | 0.00 | 0.05 | 0.05 | 85 | 1029.9 |
| 20260510083908 | 11 | 284 | 0.0 | 0.0 | 0.00 | 0.05 | 0.05 | 84 | 1029.9 |
| 20260510083646 | 12 | 284 | 0.0 | 0.0 | 0.00 | 0.05 | 0.05 | 83 | 1029.9 |
| 20260510082928 | 12 | 284 | 0.0 | 0.0 | 0.00 | 0.05 | 0.05 | 83 | 1029.9 |
| 20260510081908 | 12 | 284 | 0.0 | 0.0 | 0.00 | 0.05 | 0.05 | 82 | 1029.9 |
| 20260510081407 | 12 | 284 | 0.0 | 0.0 | 0.00 | 0.05 | 0.05 | 82 | 1029.9 |
| 20260510080905 | 12 | 284 | 0.0 | 0.0 | 0.00 | 0.05 | 0.05 | 82 | 1029.8 |
| 20260510080646 | 12 | 284 | 0.0 | 0.0 | 0.00 | 0.05 | 0.05 | 82 | 1029.8 |
| 20260510075906 | 12 | 284 | 0.0 | 0.0 | 0.00 | 0.05 | 0.05 | 82 | 1029.7 |
| 20260510075405 | 12 | 284 | 0.0 | 0.0 | 0.00 | 0.05 | 0.05 | 81 | 1029.6 |
| 20260510074910 | 12 | 284 | 0.0 | 0.0 | 0.00 | 0.05 | 0.05 | 81 | 1029.6 |
| 20260510074404 | 12 | 284 | 0.0 | 0.0 | 0.00 | 0.05 | 0.05 | 81 | 1029.6 |
| 20260510073905 | 12 | 284 | 0.0 | 0.0 | 0.00 | 0.05 | 0.05 | 81 | 1029.5 |
| 20260510073405 | 13 | 284 | 0.0 | 0.0 | 0.00 | 0.05 | 0.05 | 81 | 1029.5 |
| 20260510072904 | 13 | 284 | 0.0 | 0.0 | 0.00 | 0.05 | 0.05 | 80 | 1029.4 |
| 20260510072642 | 12 | 284 | 0.0 | 0.0 | 0.00 | 0.05 | 0.05 | 80 | 1029.4 |
| 20260510072141 | 13 | 284 | 0.0 | 0.0 | 0.00 | 0.05 | 0.05 | 80 | 1029.5 |
| 20260510071405 | 13 | 284 | 0.0 | 0.0 | 0.00 | 0.05 | 0.05 | 79 | 1029.5 |
| 20260510070904 | 13 | 284 | 0.0 | 0.0 | 0.00 | 0.05 | 0.05 | 80 | 1029.5 |
| 20260510070403 | 13 | 284 | 0.0 | 0.0 | 0.00 | 0.05 | 0.05 | 78 | 1029.4 |
| 20260510065905 | 13 | 284 | 0.0 | 0.0 | 0.00 | 0.05 | 0.05 | 78 | 1029.4 |
| 20260510065405 | 13 | 284 | 0.0 | 0.0 | 0.00 | 0.05 | 0.05 | 78 | 1029.3 |
| 20260510065151 | 13 | 284 | 0.0 | 0.0 | 0.00 | 0.05 | 0.05 | 77 | 1029.4 |
| 20260510064650 | 13 | 284 | 0.0 | 1.6 | 0.00 | 0.05 | 0.05 | 78 | 1029.3 |
| 20260510064148 | 13 | 284 | 0.0 | 1.6 | 0.00 | 0.05 | 0.05 | 78 | 1029.3 |
| 20260510063645 | 13 | 346 | 0.0 | 0.0 | 0.00 | 0.05 | 0.05 | 78 | 1029.3 |
| 20260510062903 | 13 | 346 | 0.0 | 0.0 | 0.00 | 0.05 | 0.05 | 78 | 1029.3 |
| 20260510062646 | 13 | 346 | 0.0 | 0.0 | 0.00 | 0.05 | 0.05 | 77 | 1029.3 |
| 20260510062152 | 13 | 346 | 0.0 | 0.0 | 0.00 | 0.05 | 0.05 | 77 | 1029.3 |
| 20260510061404 | 13 | 346 | 0.0 | 0.0 | 0.00 | 0.05 | 0.05 | 76 | 1029.3 |
| 20260510060910 | 13 | 346 | 0.0 | 0.0 | 0.00 | 0.05 | 0.05 | 75 | 1029.3 |
| 20260510060412 | 13 | 346 | 0.0 | 0.0 | 0.00 | 0.05 | 0.05 | 75 | 1029.0 |
| 20260510060153 | 13 | 316 | 0.0 | 0.0 | 0.00 | 0.05 | 0.05 | 75 | 1029.3 |
| 20260510055404 | 13 | 316 | 0.0 | 0.0 | 0.00 | 0.05 | 0.05 | 76 | 1029.3 |
| 20260510054905 | 13 | 316 | 0.0 | 0.0 | 0.00 | 0.05 | 0.05 | 75 | 1029.3 |
| 20260510054713 | 13 | 316 | 0.0 | 0.0 | 0.00 | 0.05 | 0.05 | 75 | 1029.3 |
| 20260510054708 | 13 | 316 | 0.0 | 0.0 | 0.00 | 0.05 | 0.05 | 75 | 1029.3 |
| 20260510053354 | 13 | 316 | 0.0 | 0.0 | 0.00 | 0.05 | 0.05 | 76 | 1029.1 |
| 20260510052842 | 13 | 316 | 0.0 | 0.0 | 0.00 | 0.05 | 0.05 | 77 | 1029.0 |
| 20260510052340 | 13 | 316 | 0.0 | 0.0 | 0.00 | 0.05 | 0.05 | 76 | 1029.1 |
| 20260510051832 | 13 | 316 | 0.0 | 0.0 | 0.00 | 0.05 | 0.05 | 76 | 1029.3 |
| 20260510051612 | 13 | 316 | 0.0 | 0.0 | 0.00 | 0.05 | 0.05 | 74 | 1029.3 |
| 20260510050833 | 13 | 316 | 0.0 | 0.0 | 0.00 | 0.05 | 0.05 | 75 | 1029.4 |
| 20260510050618 | 13 | 316 | 0.0 | 0.0 | 0.00 | 0.05 | 0.05 | 77 | 1029.4 |
| 20260510045832 | 13 | 316 | 0.0 | 0.0 | 0.00 | 0.05 | 0.05 | 76 | 1029.4 |
| 20260510045331 | 13 | 316 | 0.0 | 0.0 | 0.00 | 0.05 | 0.05 | 75 | 1029.3 |
| 20260510044831 | 13 | 316 | 0.0 | 0.0 | 0.00 | 0.05 | 0.05 | 76 | 1029.3 |
| 20260510044331 | 13 | 316 | 0.0 | 0.0 | 0.00 | 0.05 | 0.05 | 76 | 1029.4 |
| 20260510043831 | 13 | 316 | 0.0 | 0.0 | 0.00 | 0.05 | 0.05 | 75 | 1029.3 |
| 20260510043619 | 13 | 316 | 0.0 | 0.0 | 0.00 | 0.05 | 0.05 | 78 | 1029.4 |
| 20260510043010 | 13 | 316 | 0.0 | 0.0 | 0.00 | 0.05 | 0.05 | 78 | 1029.3 |
| 20260510043000 | 13 | 316 | 0.0 | 0.0 | 0.00 | 0.05 | 0.05 | 77 | 1029.3 |
| 20260510042937 | 13 | 316 | 0.0 | 0.0 | 0.00 | 0.05 | 0.05 | 79 | 1029.3 |
| 20260510042129 | 13 | 316 | 0.0 | 0.0 | 0.00 | 0.05 | 0.05 | 77 | 1029.3 |
| 20260510040834 | 13 | 316 | 0.0 | 0.0 | 0.00 | 0.05 | 0.05 | 76 | 1029.4 |
| 20260510040332 | 13 | 316 | 0.0 | 0.0 | 0.00 | 0.05 | 0.05 | 76 | 1029.4 |
| 20260510035833 | 13 | 316 | 0.0 | 0.0 | 0.00 | 0.05 | 0.05 | 75 | 1029.4 |
| 20260510035610 | 13 | 316 | 0.0 | 0.0 | 0.00 | 0.05 | 0.05 | 76 | 1029.4 |
| 20260510034832 | 13 | 316 | 0.0 | 0.0 | 0.00 | 0.05 | 0.05 | 76 | 1029.5 |
| 20260510034612 | 13 | 316 | 0.0 | 1.6 | 0.00 | 0.05 | 0.05 | 76 | 1029.6 |
| 20260510033832 | 13 | 316 | 0.0 | 1.6 | 0.00 | 0.05 | 0.05 | 76 | 1029.6 |
| 20260510033613 | 13 | 5 | 0.0 | 0.0 | 0.00 | 0.05 | 0.05 | 76 | 1029.6 |
| 20260510033125 | 13 | 5 | 0.0 | 0.0 | 0.00 | 0.05 | 0.05 | 76 | 1029.7 |
| 20260510032359 | 13 | 5 | 0.0 | 0.0 | 0.00 | 0.05 | 0.05 | 79 | 1029.8 |
| 20260510032348 | 13 | 5 | 0.0 | 0.0 | 0.00 | 0.05 | 0.05 | 76 | 1029.7 |
| 20260510031330 | 13 | 5 | 0.0 | 0.0 | 0.00 | 0.05 | 0.05 | 80 | 1029.9 |
| 20260510030831 | 13 | 5 | 0.0 | 0.0 | 0.00 | 0.05 | 0.05 | 79 | 1030.0 |
| 20260510030331 | 13 | 5 | 0.0 | 0.0 | 0.00 | 0.05 | 0.05 | 79 | 1030.1 |
| 20260510030122 | 13 | 5 | 0.0 | 0.0 | 0.00 | 0.05 | 0.05 | 80 | 1030.2 |
| 20260510025633 | 13 | 5 | 0.0 | 0.0 | 0.00 | 0.05 | 0.05 | 79 | 1030.3 |
| 20260510024831 | 13 | 5 | 0.0 | 0.0 | 0.00 | 0.05 | 0.05 | 79 | 1030.3 |
| 20260510024330 | 12 | 5 | 0.0 | 0.0 | 0.00 | 0.05 | 0.05 | 80 | 1030.4 |
| 20260510023851 | 12 | 5 | 0.0 | 0.0 | 0.00 | 0.05 | 0.05 | 80 | 1030.5 |
| 20260510022833 | 12 | 5 | 0.0 | 0.0 | 0.00 | 0.05 | 0.05 | 80 | 1030.5 |
| 20260510022631 | 13 | 5 | 0.0 | 0.0 | 0.00 | 0.05 | 0.05 | 81 | 1030.6 |
| 20260510021834 | 12 | 5 | 0.0 | 0.0 | 0.00 | 0.05 | 0.05 | 81 | 1030.6 |
| 20260510021335 | 12 | 5 | 0.0 | 0.0 | 0.00 | 0.05 | 0.05 | 82 | 1030.6 |
| 20260510020833 | 12 | 5 | 0.0 | 0.0 | 0.00 | 0.05 | 0.05 | 82 | 1030.6 |
| 20260510020333 | 12 | 5 | 0.0 | 0.0 | 0.00 | 0.05 | 0.05 | 82 | 1030.7 |
| 20260510020112 | 12 | 5 | 0.0 | 0.0 | 0.00 | 0.05 | 0.05 | 83 | 1030.7 |
| 20260510015333 | 12 | 5 | 0.0 | 0.0 | 0.00 | 0.05 | 0.05 | 81 | 1030.8 |
| 20260510014833 | 12 | 5 | 0.0 | 0.0 | 0.00 | 0.05 | 0.05 | 81 | 1030.8 |
| 20260510014333 | 12 | 5 | 0.0 | 0.0 | 0.00 | 0.05 | 0.05 | 81 | 1030.8 |
| 20260510014115 | 12 | 5 | 0.0 | 0.0 | 0.00 | 0.05 | 0.05 | 81 | 1030.8 |
| 20260510013333 | 12 | 5 | 0.0 | 0.0 | 0.00 | 0.05 | 0.05 | 82 | 1030.8 |
| 20260510012916 | 12 | 5 | 0.0 | 3.2 | 0.00 | 0.05 | 0.05 | 83 | 1030.8 |
| 20260510012901 | 12 | 5 | 0.0 | 0.0 | 0.00 | 0.05 | 0.05 | 83 | 1030.8 |
| 20260510011912 | 12 | 135 | 0.0 | 3.2 | 0.00 | 0.05 | 0.05 | 84 | 1030.8 |
| 20260510011638 | 12 | 59 | 0.0 | 0.0 | 0.00 | 0.05 | 0.05 | 85 | 1030.7 |
| 20260510010620 | 12 | 59 | 0.0 | 0.0 | 0.00 | 0.05 | 0.05 | 85 | 1030.7 |
| 20260510005833 | 12 | 59 | 0.0 | 0.0 | 0.00 | 0.05 | 0.05 | 88 | 1030.8 |
| 20260510005333 | 12 | 59 | 0.0 | 0.0 | 0.00 | 0.05 | 0.05 | 87 | 1030.8 |
| 20260510004832 | 12 | 59 | 0.0 | 0.0 | 0.00 | 0.05 | 0.05 | 88 | 1030.8 |
| 20260510004339 | 12 | 59 | 0.0 | 0.0 | 0.00 | 0.05 | 0.05 | 89 | 1030.7 |
| 20260510003833 | 12 | 59 | 0.0 | 0.0 | 0.00 | 0.05 | 0.05 | 90 | 1030.7 |
| 20260510003333 | 12 | 59 | 0.0 | 1.6 | 0.00 | 0.05 | 0.05 | 89 | 1030.8 |
| 20260510003116 | 12 | 59 | 0.0 | 1.6 | 0.00 | 0.05 | 0.05 | 89 | 1030.8 |
| 20260510002334 | 12 | 323 | 0.0 | 0.0 | 0.00 | 0.05 | 0.05 | 89 | 1030.8 |
| 20260510002042 | 12 | 323 | 0.0 | 0.0 | 0.00 | 0.05 | 0.05 | 90 | 1030.8 |
| 20260510001309 | 12 | 323 | 0.0 | 0.0 | 0.00 | 0.05 | 0.05 | 91 | 1030.8 |
| 20260510000808 | 11 | 323 | 0.0 | 0.0 | 0.00 | 0.05 | 0.05 | 92 | 1030.9 |
| 20260510000311 | 11 | 323 | 0.0 | 0.0 | 0.00 | 0.05 | 0.05 | 93 | 1030.9 |
| 20260509235836 | 11 | 323 | 0.0 | 0.0 | 0.00 | 0.05 | 0.05 | 94 | 1030.9 |
| 20260509235825 | 11 | 323 | 0.0 | 0.0 | 0.00 | 0.05 | 0.05 | 93 | 1030.9 |
| 20260509234807 | 11 | 323 | 0.0 | 0.0 | 0.00 | 0.05 | 0.05 | 94 | 1030.9 |
| 20260509234308 | 11 | 319 | 0.0 | 0.0 | 0.00 | 0.05 | 0.05 | 95 | 1030.9 |
| 20260509233809 | 11 | 319 | 0.0 | 0.0 | 0.00 | 0.05 | 0.05 | 95 | 1030.9 |
| 20260509233309 | 11 | 319 | 0.0 | 0.0 | 0.00 | 0.05 | 0.05 | 95 | 1031.0 |
| 20260509232809 | 11 | 319 | 0.0 | 0.0 | 0.00 | 0.05 | 0.05 | 96 | 1031.0 |
| 20260509232552 | 11 | 319 | 0.0 | 0.0 | 0.00 | 0.05 | 0.05 | 96 | 1031.0 |
| 20260509232048 | 11 | 319 | 0.0 | 0.0 | 0.00 | 0.05 | 0.05 | 96 | 1031.2 |
| 20260509231308 | 11 | 291 | 0.0 | 0.0 | 0.00 | 0.05 | 0.05 | 96 | 1031.2 |
| 20260509230808 | 11 | 291 | 0.0 | 0.0 | 0.00 | 0.05 | 0.05 | 96 | 1031.0 |
| 20260509230308 | 11 | 291 | 0.0 | 0.0 | 0.00 | 0.05 | 0.05 | 96 | 1030.9 |
| 20260509225808 | 11 | 291 | 0.0 | 0.0 | 0.00 | 0.05 | 0.05 | 96 | 1030.9 |
| 20260509225315 | 11 | 291 | 0.0 | 0.0 | 0.00 | 0.05 | 0.05 | 96 | 1030.8 |
| 20260509224810 | 11 | 291 | 0.0 | 0.0 | 0.00 | 0.05 | 0.05 | 97 | 1030.8 |
| 20260509224307 | 10 | 291 | 0.0 | 0.0 | 0.00 | 0.05 | 0.05 | 96 | 1030.8 |
| 20260509223807 | 10 | 291 | 0.0 | 0.0 | 0.00 | 0.05 | 0.05 | 96 | 1030.7 |
| 20260509223308 | 10 | 291 | 0.0 | 0.0 | 0.00 | 0.05 | 0.05 | 96 | 1030.6 |
| 20260509222807 | 10 | 291 | 0.0 | 0.0 | 0.00 | 0.05 | 0.05 | 96 | 1030.5 |
| 20260509222307 | 10 | 291 | 0.0 | 0.0 | 0.00 | 0.05 | 0.05 | 96 | 1030.4 |
| 20260509221807 | 10 | 291 | 0.0 | 0.0 | 0.00 | 0.05 | 0.05 | 96 | 1030.3 |
| 20260509221308 | 10 | 291 | 0.0 | 0.0 | 0.00 | 0.05 | 0.05 | 96 | 1030.3 |
| 20260509220807 | 10 | 291 | 0.0 | 0.0 | 0.00 | 0.05 | 0.05 | 96 | 1030.3 |
| 20260509220546 | 10 | 291 | 0.0 | 0.0 | 0.00 | 0.05 | 0.05 | 96 | 1030.2 |
| 20260509220053 | 10 | 291 | 0.0 | 0.0 | 0.00 | 0.05 | 0.05 | 96 | 1030.2 |
| 20260509215307 | 10 | 291 | 0.0 | 0.0 | 0.00 | 0.05 | 0.05 | 96 | 1030.1 |
| 20260509214806 | 10 | 291 | 0.0 | 0.0 | 0.00 | 0.05 | 0.05 | 96 | 1030.1 |
| 20260509214307 | 10 | 291 | 0.0 | 0.0 | 0.00 | 0.05 | 0.05 | 96 | 1030.1 |
| 20260509214050 | 10 | 291 | 0.0 | 0.0 | 0.00 | 0.05 | 0.05 | 96 | 1030.1 |
| 20260509213306 | 10 | 291 | 0.0 | 0.0 | 0.00 | 0.05 | 0.05 | 96 | 1030.0 |
| 20260509212807 | 10 | 291 | 0.0 | 0.0 | 0.00 | 0.05 | 0.05 | 96 | 1030.0 |
| 20260509212312 | 10 | 291 | 0.0 | 0.0 | 0.00 | 0.05 | 0.05 | 96 | 1029.9 |
| 20260509211805 | 10 | 291 | 0.0 | 0.0 | 0.00 | 0.05 | 0.05 | 96 | 1029.9 |
| 20260509211541 | 10 | 291 | 0.0 | 0.0 | 0.00 | 0.05 | 0.05 | 96 | 1029.8 |
| 20260509210807 | 10 | 291 | 0.0 | 0.0 | 0.00 | 0.05 | 0.05 | 96 | 1029.8 |
| 20260509210307 | 10 | 291 | 0.0 | 0.0 | 0.00 | 0.05 | 0.05 | 96 | 1029.7 |
| 20260509210042 | 10 | 291 | 0.0 | 0.0 | 0.00 | 0.05 | 0.05 | 96 | 1029.8 |
| 20260509205307 | 10 | 291 | 0.0 | 0.0 | 0.00 | 0.05 | 0.05 | 96 | 1029.6 |
| 20260509204808 | 10 | 291 | 0.0 | 0.0 | 0.00 | 0.05 | 0.05 | 96 | 1029.7 |
| 20260509204305 | 10 | 291 | 0.0 | 0.0 | 0.00 | 0.05 | 0.05 | 96 | 1029.6 |
| 20260509203808 | 10 | 291 | 0.0 | 0.0 | 0.00 | 0.05 | 0.05 | 96 | 1029.5 |
| 20260509203307 | 10 | 291 | 0.0 | 0.0 | 0.00 | 0.05 | 0.05 | 96 | 1029.5 |
| 20260509202806 | 10 | 291 | 0.0 | 0.0 | 0.00 | 0.05 | 0.05 | 96 | 1029.5 |
| 20260509202307 | 10 | 291 | 0.0 | 0.0 | 0.00 | 0.05 | 0.05 | 96 | 1029.5 |
| 20260509201857 | 10 | 291 | 0.0 | 0.0 | 0.00 | 0.05 | 0.05 | 96 | 1028.7 |
| 20260509201828 | 10 | 291 | 0.0 | 0.0 | 0.00 | 0.05 | 0.05 | 96 | 1029.5 |
| 20260509200805 | 10 | 291 | 0.0 | 0.0 | 0.00 | 0.05 | 0.05 | 96 | 1029.4 |
| 20260509200308 | 10 | 291 | 0.0 | 0.0 | 0.00 | 0.05 | 0.05 | 96 | 1029.4 |
| 20260509195807 | 10 | 291 | 0.0 | 0.0 | 0.03 | 0.05 | 0.05 | 96 | 1029.4 |
| 20260509195552 | 10 | 291 | 0.0 | 1.6 | 0.03 | 0.05 | 0.05 | 96 | 1029.4 |
| 20260509194805 | 10 | 291 | 0.0 | 1.6 | 0.03 | 0.05 | 0.05 | 96 | 1029.4 |
| 20260509194614 | 10 | 311 | 0.0 | 0.0 | 0.05 | 0.05 | 0.05 | 96 | 1029.3 |
| 20260509194609 | 10 | 332 | 0.0 | 0.0 | 0.03 | 0.05 | 0.05 | 96 | 1029.3 |
| 20260509193311 | 10 | 311 | 0.0 | 0.0 | 0.05 | 0.05 | 0.05 | 96 | 1029.2 |
| 20260509192805 | 10 | 311 | 0.0 | 0.0 | 0.05 | 0.05 | 0.05 | 96 | 1029.1 |
| 20260509192306 | 10 | 311 | 0.0 | 0.0 | 0.05 | 0.05 | 0.05 | 96 | 1029.1 |
| 20260509191806 | 10 | 311 | 0.0 | 0.0 | 0.05 | 0.05 | 0.05 | 96 | 1029.0 |
| 20260509191307 | 10 | 311 | 0.0 | 0.0 | 0.05 | 0.05 | 0.05 | 96 | 1029.0 |
| 20260509190806 | 10 | 311 | 0.0 | 0.0 | 0.05 | 0.05 | 0.05 | 96 | 1028.8 |
| 20260509190344 | 10 | 311 | 0.0 | 0.0 | 0.05 | 0.05 | 0.05 | 96 | 1028.7 |
| 20260509190328 | 10 | 311 | 0.0 | 0.0 | 0.05 | 0.05 | 0.05 | 96 | 1028.7 |
| 20260509185544 | 10 | 311 | 0.0 | 0.0 | 0.05 | 0.05 | 0.05 | 96 | 1028.6 |
| 20260509185049 | 10 | 311 | 0.0 | 0.0 | 0.05 | 0.05 | 0.05 | 96 | 1028.6 |
| 20260509184307 | 10 | 311 | 0.0 | 0.0 | 0.05 | 0.05 | 0.05 | 96 | 1028.5 |
| 20260509184045 | 10 | 311 | 0.0 | 0.0 | 0.03 | 0.03 | 0.03 | 96 | 1028.5 |
| 20260509183337 | 10 | 311 | 0.0 | 0.0 | 0.03 | 0.03 | 0.03 | 96 | 1028.5 |
| 20260509183326 | 10 | 311 | 0.0 | 0.0 | 0.03 | 0.03 | 0.03 | 96 | 1028.5 |
| 20260509182550 | 10 | 311 | 0.0 | 0.0 | 0.03 | 0.03 | 0.03 | 96 | 1028.5 |
| 20260509181900 | 11 | 311 | 0.0 | 0.0 | 0.03 | 0.03 | 0.00 | 96 | 1028.5 |
| 20260509181626 | 10 | 311 | 0.0 | 0.0 | 0.00 | 0.00 | 0.00 | 96 | 1028.5 |
| 20260509180307 | 10 | 311 | 0.0 | 0.0 | 0.00 | 0.00 | 0.00 | 96 | 1028.5 |
| 20260509180049 | 10 | 311 | 0.0 | 0.0 | 0.00 | 0.00 | 0.00 | 96 | 1028.5 |
| 20260509175309 | 10 | 311 | 0.0 | 0.0 | 0.00 | 0.00 | 0.00 | 96 | 1028.6 |
| 20260509174809 | 10 | 311 | 0.0 | 0.0 | 0.00 | 0.00 | 0.00 | 96 | 1028.6 |
| 20260509174308 | 10 | 311 | 0.0 | 0.0 | 0.00 | 0.00 | 0.00 | 96 | 1028.7 |
| 20260509173809 | 10 | 311 | 0.0 | 0.0 | 0.00 | 0.00 | 0.00 | 96 | 1028.7 |
| 20260509173550 | 10 | 311 | 0.0 | 0.0 | 0.00 | 0.00 | 0.00 | 96 | 1028.7 |
| 20260509172812 | 10 | 311 | 0.0 | 1.6 | 0.00 | 0.00 | 0.00 | 96 | 1028.7 |
| 20260509172543 | 10 | 5 | 0.0 | 1.6 | 0.00 | 0.00 | 0.00 | 96 | 1028.7 |
| 20260509171809 | 10 | 302 | 0.0 | 1.6 | 0.00 | 0.00 | 0.00 | 95 | 1028.7 |
| 20260509171542 | 10 | 334 | 0.0 | 0.0 | 0.00 | 0.00 | 0.00 | 96 | 1028.7 |
| 20260509170808 | 10 | 337 | 0.0 | 0.0 | 0.00 | 0.00 | 0.00 | 96 | 1028.8 |
| 20260509170308 | 10 | 337 | 0.0 | 0.0 | 0.00 | 0.00 | 0.00 | 96 | 1028.8 |
| 20260509165808 | 10 | 244 | 0.0 | 0.0 | 0.00 | 0.00 | 0.00 | 96 | 1028.7 |
| 20260509165308 | 10 | 244 | 0.0 | 0.0 | 0.00 | 0.00 | 0.00 | 96 | 1028.8 |
| 20260509164806 | 10 | 244 | 0.0 | 1.6 | 0.00 | 0.00 | 0.00 | 96 | 1028.8 |
| 20260509164557 | 10 | 244 | 0.0 | 1.6 | 0.00 | 0.00 | 0.00 | 96 | 1029.0 |
| 20260509163807 | 10 | 265 | 0.0 | 0.0 | 0.00 | 0.00 | 0.00 | 96 | 1028.8 |
| 20260509163308 | 10 | 306 | 0.0 | 0.0 | 0.00 | 0.00 | 0.00 | 96 | 1029.0 |
| 20260509162808 | 10 | 306 | 0.0 | 0.0 | 0.00 | 0.00 | 0.00 | 96 | 1029.0 |
| 20260509162307 | 10 | 306 | 0.0 | 1.6 | 0.00 | 0.00 | 0.00 | 96 | 1029.1 |
| 20260509161807 | 10 | 306 | 0.0 | 1.6 | 0.00 | 0.00 | 0.00 | 96 | 1029.1 |
| 20260509161307 | 10 | 322 | 0.0 | 0.0 | 0.00 | 0.00 | 0.00 | 95 | 1029.2 |
| 20260509161054 | 10 | 322 | 0.0 | 0.0 | 0.00 | 0.00 | 0.00 | 96 | 1029.3 |
| 20260509160307 | 10 | 322 | 0.0 | 0.0 | 0.00 | 0.00 | 0.00 | 96 | 1029.3 |
| 20260509155813 | 10 | 322 | 0.0 | 0.0 | 0.00 | 0.00 | 0.00 | 96 | 1029.3 |
| 20260509155306 | 10 | 322 | 0.0 | 0.0 | 0.00 | 0.00 | 0.00 | 96 | 1029.3 |
| 20260509154807 | 10 | 322 | 0.0 | 0.0 | 0.00 | 0.00 | 0.00 | 96 | 1029.3 |
| 20260509154307 | 10 | 322 | 0.0 | 0.0 | 0.00 | 0.00 | 0.00 | 96 | 1029.3 |
| 20260509153807 | 10 | 322 | 0.0 | 0.0 | 0.00 | 0.00 | 0.00 | 96 | 1029.3 |
| 20260509153308 | 10 | 322 | 0.0 | 0.0 | 0.00 | 0.00 | 0.00 | 96 | 1029.4 |
| 20260509152808 | 10 | 322 | 0.0 | 0.0 | 0.00 | 0.00 | 0.00 | 96 | 1029.3 |
| 20260509152307 | 10 | 322 | 0.0 | 0.0 | 0.00 | 0.00 | 0.00 | 96 | 1029.3 |
| 20260509151840 | 10 | 322 | 0.0 | 0.0 | 0.00 | 0.00 | 0.00 | 96 | 1029.3 |
| 20260509151824 | 10 | 322 | 0.0 | 0.0 | 0.00 | 0.00 | 0.00 | 95 | 1029.3 |
| 20260509150807 | 10 | 322 | 0.0 | 0.0 | 0.00 | 0.00 | 0.00 | 95 | 1029.3 |
| 20260509150541 | 10 | 322 | 0.0 | 1.6 | 0.00 | 0.00 | 0.00 | 95 | 1029.4 |
| 20260509145806 | 10 | 322 | 0.0 | 1.6 | 0.00 | 0.00 | 0.00 | 95 | 1029.4 |
| 20260509145307 | 10 | 346 | 0.0 | 0.0 | 0.00 | 0.00 | 0.00 | 95 | 1029.4 |
| 20260509144807 | 10 | 346 | 0.0 | 0.0 | 0.00 | 0.00 | 0.00 | 95 | 1029.5 |
| 20260509144304 | 10 | 346 | 0.0 | 1.6 | 0.00 | 0.00 | 0.00 | 95 | 1029.5 |
| 20260509144049 | 10 | 346 | 0.0 | 1.6 | 0.00 | 0.00 | 0.00 | 95 | 1029.6 |
| 20260509143306 | 10 | 305 | 0.0 | 1.6 | 0.00 | 0.00 | 0.00 | 95 | 1029.6 |
| 20260509142806 | 10 | 286 | 0.0 | 1.6 | 0.00 | 0.00 | 0.00 | 96 | 1029.7 |
| 20260509142307 | 10 | 286 | 0.0 | 1.6 | 0.00 | 0.00 | 0.00 | 95 | 1029.7 |
| 20260509141824 | 10 | 36 | 0.0 | 0.0 | 0.00 | 0.00 | 0.00 | 96 | 1029.6 |
| 20260509141056 | 10 | 330 | 0.0 | 0.0 | 0.00 | 0.00 | 0.00 | 96 | 1029.6 |
| 20260509140307 | 10 | 330 | 0.0 | 0.0 | 0.00 | 0.00 | 0.00 | 95 | 1029.6 |
| 20260509135806 | 10 | 330 | 0.0 | 0.0 | 0.00 | 0.00 | 0.00 | 96 | 1029.6 |
| 20260509135306 | 10 | 330 | 0.0 | 0.0 | 0.00 | 0.00 | 0.00 | 96 | 1029.6 |
| 20260509134808 | 10 | 330 | 0.0 | 0.0 | 0.00 | 0.00 | 0.00 | 96 | 1029.6 |
| 20260509134542 | 10 | 330 | 0.0 | 0.0 | 0.00 | 0.00 | 0.00 | 96 | 1029.7 |
| 20260509133806 | 10 | 330 | 0.0 | 0.0 | 0.00 | 0.00 | 0.00 | 95 | 1029.7 |
| 20260509133308 | 10 | 330 | 0.0 | 0.0 | 0.00 | 0.00 | 0.00 | 95 | 1029.7 |
| 20260509132804 | 10 | 330 | 0.0 | 0.0 | 0.00 | 0.00 | 0.00 | 96 | 1029.7 |
| 20260509132543 | 9 | 330 | 0.0 | 0.0 | 0.00 | 0.00 | 0.00 | 96 | 1029.7 |
| 20260509131807 | 9 | 330 | 0.0 | 0.0 | 0.00 | 0.00 | 0.00 | 96 | 1029.7 |
| 20260509131306 | 8 | 330 | 0.0 | 0.0 | 0.00 | 0.00 | 0.00 | 96 | 1029.7 |
| 20260509130808 | 8 | 330 | 0.0 | 0.0 | 0.00 | 0.00 | 0.00 | 95 | 1029.8 |
| 20260509130308 | 8 | 330 | 0.0 | 0.0 | 0.00 | 0.00 | 0.00 | 95 | 1029.8 |
| 20260509125809 | 8 | 330 | 0.0 | 0.0 | 0.00 | 0.00 | 0.00 | 95 | 1029.9 |
| 20260509125308 | 7 | 330 | 0.0 | 0.0 | 0.00 | 0.00 | 0.00 | 95 | 1029.9 |
| 20260509124807 | 8 | 330 | 0.0 | 0.0 | 0.00 | 0.00 | 0.00 | 95 | 1029.9 |
| 20260509124548 | 8 | 330 | 0.0 | 0.0 | 0.00 | 0.00 | 0.00 | 95 | 1029.9 |
| 20260509123809 | 7 | 330 | 0.0 | 0.0 | 0.00 | 0.00 | 0.00 | 95 | 1029.9 |
| 20260509123308 | 7 | 330 | 0.0 | 0.0 | 0.00 | 0.00 | 0.00 | 95 | 1029.9 |
| 20260509122807 | 7 | 330 | 0.0 | 0.0 | 0.00 | 0.00 | 0.00 | 95 | 1029.9 |
| 20260509122309 | 7 | 330 | 0.0 | 0.0 | 0.00 | 0.00 | 0.00 | 94 | 1029.8 |
| 20260509121809 | 8 | 330 | 0.0 | 0.0 | 0.00 | 0.00 | 0.00 | 94 | 1029.8 |
| 20260509121314 | 8 | 330 | 0.0 | 0.0 | 0.00 | 0.00 | 0.00 | 94 | 1029.8 |
| 20260509120810 | 8 | 330 | 0.0 | 0.0 | 0.00 | 0.00 | 0.00 | 94 | 1029.7 |
| 20260509120306 | 8 | 330 | 0.0 | 0.0 | 0.00 | 0.00 | 0.00 | 94 | 1029.8 |
| 20260509115807 | 8 | 330 | 0.0 | 0.0 | 0.00 | 0.00 | 0.00 | 94 | 1029.8 |
| 20260509115543 | 8 | 330 | 0.0 | 0.0 | 0.00 | 0.00 | 0.00 | 94 | 1029.8 |
| 20260509114808 | 8 | 330 | 0.0 | 0.0 | 0.00 | 0.00 | 0.00 | 94 | 1029.7 |
| 20260509114308 | 8 | 330 | 0.0 | 0.0 | 0.00 | 0.00 | 0.00 | 94 | 1029.8 |
| 20260509113808 | 8 | 330 | 0.0 | 0.0 | 0.00 | 0.00 | 0.00 | 94 | 1029.8 |
| 20260509113308 | 9 | 330 | 0.0 | 0.0 | 0.00 | 0.00 | 0.00 | 94 | 1029.8 |
| 20260509112809 | 9 | 330 | 0.0 | 0.0 | 0.00 | 0.00 | 0.00 | 94 | 1029.8 |
| 20260509112307 | 9 | 330 | 0.0 | 0.0 | 0.00 | 0.00 | 0.00 | 94 | 1029.8 |
| 20260509111807 | 9 | 330 | 0.0 | 0.0 | 0.00 | 0.00 | 0.00 | 94 | 1029.7 |
| 20260509111308 | 10 | 330 | 0.0 | 0.0 | 0.00 | 0.00 | 0.00 | 93 | 1029.7 |
| 20260509110805 | 10 | 330 | 0.0 | 0.0 | 0.00 | 0.00 | 0.00 | 94 | 1029.6 |
| 20260509110320 | 10 | 330 | 0.0 | 0.0 | 0.00 | 0.00 | 0.00 | 93 | 1029.6 |
| 20260509105808 | 10 | 330 | 0.0 | 0.0 | 0.00 | 0.00 | 0.00 | 93 | 1029.6 |
| 20260509105309 | 10 | 330 | 0.0 | 0.0 | 0.00 | 0.00 | 0.00 | 93 | 1029.6 |
| 20260509105050 | 11 | 330 | 0.0 | 0.0 | 0.00 | 0.00 | 0.00 | 93 | 1029.6 |
| 20260509104552 | 11 | 330 | 0.0 | 0.0 | 0.00 | 0.00 | 0.00 | 93 | 1029.6 |
| 20260509104046 | 11 | 330 | 0.0 | 0.0 | 0.00 | 0.00 | 0.00 | 93 | 1029.6 |
| 20260509103547 | 11 | 330 | 0.0 | 0.0 | 0.00 | 0.00 | 0.00 | 93 | 1029.6 |
| 20260509102807 | 11 | 330 | 0.0 | 0.0 | 0.00 | 0.00 | 0.00 | 93 | 1029.6 |
| 20260509102308 | 11 | 330 | 0.0 | 0.0 | 0.00 | 0.00 | 0.00 | 92 | 1029.6 |
| 20260509101806 | 12 | 330 | 0.0 | 0.0 | 0.00 | 0.00 | 0.00 | 92 | 1029.6 |
| 20260509101319 | 12 | 330 | 0.0 | 0.0 | 0.00 | 0.00 | 0.00 | 92 | 1029.7 |
| 20260509100808 | 12 | 330 | 0.0 | 0.0 | 0.00 | 0.00 | 0.00 | 92 | 1029.7 |
| 20260509100313 | 12 | 330 | 0.0 | 0.0 | 0.00 | 0.00 | 0.00 | 92 | 1029.7 |
| 20260509095847 | 12 | 330 | 0.0 | 0.0 | 0.00 | 0.00 | 0.00 | 92 | 1029.7 |
| 20260509095830 | 12 | 330 | 0.0 | 0.0 | 0.00 | 0.00 | 0.00 | 92 | 1029.7 |